Lid_Strength_Index
5 5 5 5 4 4 4 4 4 3 3 3 3 2 2 2 5 9 10 6 3 0 3 9 9 9 9 10 10 11 15 16 15 14 13 11 12 11 11 11 10 10 10 10 9
5 5 5 5 4 4 4 4 4 4 3 3 3 2 2 2 10 11 6 2 1 1 8 9 10 10 12 12 12 13 16 14 13 12 12 12 12 12 12 12 12 11 10 10 10
5 6 5 5 5 4 4 4 4 4 3 3 3 2 2 4 12 12 4 2 2 4 8 9 10 11 13 13 13 13 14 12 12 12 12 13 13 12 14 14 12 13 12 12 11
6 6 6 5 5 4 4 4 4 4 3 3 3 2 2 10 16 10 4 3 3 7 9 10 11 13 14 15 13 14 13 13 12 13 13 13 12 14 14 13 12 12 12 12 13
6 6 6 6 5 4 4 4 4 4 3 3 2 2 9 13 13 9 5 6 8 9 10 11 12 13 15 15 14 14 14 14 14 13 14 13 14 14 14 13 12 12 13 14 14
6 6 6 5 5 5 4 4 4 4 3 2 2 3 12 15 10 9 9 8 9 10 11 11 12 12 14 15 15 15 15 15 14 14 14 14 15 14 14 13 13 13 14 14 14
6 7 6 5 5 5 4 4 4 3 3 2 2 10 12 13 10 10 9 10 9 10 11 11 11 12 13 15 14 15 16 16 16 15 14 14 16 16 15 14 15 15 14 14 14
6 6 7 7 5 5 4 4 4 3 2 2 4 11 14 10 10 9 9 10 9 9 10 11 11 12 14 14 16 17 17 18 16 15 15 16 18 16 15 15 16 15 15 15 15
6 7 7 6 6 6 5 4 3 3 3 3 11 13 15 8 11 10 9 10 10 10 10 10 12 14 15 18 19 18 20 19 17 16 16 17 18 16 15 15 16 16 16 15 15
6 7 7 7 6 5 5 5 4 6 7 8 10 14 12 14 11 10 10 10 11 12 12 13 15 17 18 19 21 19 20 19 20 17 17 18 18 16 16 16 16 16 16 16 15
6 6 7 7 6 6 8 9 12 13 11 13 13 13 12 11 10 11 10 11 12 13 16 15 17 19 18 18 17 18 19 20 19 17 18 19 18 17 16 16 16 16 16 16 15
5 6 6 7 6 6 10 12 13 12 14 11 12 11 10 10 14 12 10 14 14 17 16 16 18 17 16 16 17 18 19 19 17 17 17 18 19 17 16 16 16 16 16 15 15
5 5 6 6 7 9 12 11 9 10 14 13 11 12 12 11 13 13 11 14 15 17 18 18 17 15 17 18 18 18 19 19 19 17 18 19 19 18 16 16 16 16 15 15 15
5 5 6 6 11 12 13 10 9 11 16 16 14 12 11 12 15 11 11 13 15 17 17 17 16 17 17 17 17 19 17 17 18 20 22 19 24 19 18 18 17 17 16 16 15
5 5 6 8 13 13 12 10 10 11 21 14 14 9 11 14 14 14 11 13 16 17 18 18 18 17 18 17 16 18 16 17 18 19 21 20 23 21 18 18 18 17 16 16 15
4 5 6 11 12 12 10 11 12 16 20 17 14 14 15 14 14 13 13 12 14 16 17 18 16 17 17 16 16 17 19 19 20 21 28 22 23 22 19 18 18 17 16 16 15
4 5 9 11 14 11 12 14 18 20 16 18 17 15 16 16 16 16 16 17 19 21 21 19 18 17 16 18 17 18 21 28 28 29 27 23 23 21 18 18 17 17 16 16 15
5 6 10 12 11 11 14 17 24 21 19 16 15 16 17 16 16 17 18 19 18 19 21 22 23 19 17 19 19 19 21 25 30 29 27 21 25 20 18 17 16 16 16 15 16
7 13 14 12 10 12 15 25 20 19 17 17 16 19 18 17 17 17 19 19 18 18 20 23 22 19 18 18 18 19 23 21 29 33 29 24 21 18 17 18 17 17 17 17 16
13 14 14 11 11 14 19 20 20 16 16 16 17 19 22 21 19 19 19 18 18 17 19 20 23 19 19 18 18 19 18 23 26 31 32 27 24 21 19 19 18 18 18 17 15
13 16 14 11 13 18 23 22 18 16 15 16 17 22 19 19 18 19 18 18 17 18 18 20 21 22 20 21 21 21 23 22 22 25 29 31 25 19 17 17 18 18 17 17 15
15 20 14 13 20 28 25 20 16 17 16 16 17 18 19 19 19 19 18 18 16 17 19 18 21 25 23 22 21 20 20 22 26 28 27 26 24 17 18 18 18 17 16 16 14
16 18 14 13 24 27 24 19 17 17 17 17 17 17 18 19 19 19 18 18 16 17 18 18 24 30 25 23 22 22 20 22 27 27 27 27 23 18 18 18 17 18 17 15 14
16 21 18 16 20 22 23 21 19 17 17 17 17 17 18 20 19 21 19 18 17 17 15 17 25 25 24 24 23 23 22 22 25 29 28 24 25 20 19 19 18 18 17 16 15
14 20 19 22 21 22 19 19 19 20 18 17 18 17 18 21 21 22 21 20 18 16 19 19 25 27 27 25 24 23 23 22 24 24 24 23 22 21 18 19 20 18 17 16 15
16 21 23 25 18 19 18 21 18 19 18 19 19 17 17 18 17 20 20 20 18 20 19 22 25 25 27 25 25 25 23 22 21 24 24 24 22 18 19 19 19 18 17 16 17
15 15 14 18 19 19 19 19 18 17 18 17 16 17 18 17 18 17 18 18 17 19 20 23 26 27 29 27 27 28 24 22 22 23 20 23 17 20 21 19 21 20 19 19 19